Zurück zum Katalog

EUTE 8 WEST C

HB 6

AktivKommunikationGEO
NORAD 27499·PAYLOAD·🇪🇺 EU

Gestartet Aug 21, 2002 von Cape Canaveral Space Force Station

Loading…

TLE

AktuellSource: Space-Track

Epoche: Sep 14, 2026, 10:46 UTC

1 27499U 02038A   26257.44928461 -.00000013  00000-0  00000-0 0  9999
2 27499   8.7792  61.6186 0002088 166.8944  11.1230  0.99319331 51822

Verfolge EUTE 8 WEST C in Echtzeit mit AllMySat

Download on the App Store